Racecast

Jace Cox

Legion of Zoom Track Club (VA) · - · Compare head to head

Athlete rating
Races 32
Seasons 1 2026
Speed rating — all races

Track & Field

TF speed rating

2026 TF

Legion of Zoom Track Club (VA) · Grade -

Date Meet Event Result Place Rating Difficulty PR/SR Flags
2026-06-20 Legacy Juneteenth Track Showcase shot 6.86m -0.027
2026-06-20 Legacy Juneteenth Track Showcase discus 11.39m -0.027
2026-06-20 Legacy Juneteenth Track Showcase 100m 15.35 26th · 3rd on team -0.027
2026-06-20 Legacy Juneteenth Track Showcase 200m 32.69 22nd · 5th on team -0.027
2026-06-13 AAU Virginia District Qualifier - South shot 20' 10" -0.033
2026-06-13 AAU Virginia District Qualifier - South discus 31' 2" -0.033
2026-06-13 AAU Virginia District Qualifier - South 200m 32.25 23rd · 3rd on team -0.033 ★PR SR
2026-06-13 AAU Virginia District Qualifier - South 400m 1:22.36 19th · 4th on team -0.033
2026-05-30 Va Beach Flames Invite discus 44' 11.50" -0.023
2026-05-30 Va Beach Flames Invite shot 21' 11.50" -0.023
2026-05-30 Va Beach Flames Invite 400m 1:26.32 34th · 6th on team -0.023
2026-05-30 Va Beach Flames Invite 200m 33.05 27th · 1st on team -0.023
2026-05-24 HR Hurricanes CAT 5 Invite discus 51' 7" -0.035
2026-05-24 HR Hurricanes CAT 5 Invite 100m 15.5 30th · 1st on team -0.035
2026-05-24 HR Hurricanes CAT 5 Invite 200m 34.23 24th · 5th on team -0.035
2026-05-09 VA "Legends" T & F Youth Invite 200m 34.08 54th · 4th on team -0.033
2026-05-09 VA "Legends" T & F Youth Invite 400m 1:22.26 40th · 7th on team -0.033 ★PR SR
2026-05-03 Queen Harrison Track Classic - -Youth Section shot 20' 7" -0.033
2026-05-03 Queen Harrison Track Classic - -Youth Section 200m 32.53 20th · 4th on team -0.033 PR SR
2026-05-03 Queen Harrison Track Classic - -Youth Section 100m 14.71 15th · 3rd on team -0.033 ★PR SR
2026-04-26 Virginia Pride Spring Kick-Off 100m 15.89 63rd · 2nd on team -0.029 PR SR
2026-04-26 Virginia Pride Spring Kick-Off 200m 34.11 70th · 3rd on team -0.029 PR SR
2026-04-26 Virginia Pride Spring Kick-Off 400m 1:22.93 65th · 5th on team -0.029 PR SR
2026-02-22 3rd Annual HRH Winter Storm Classic shot 18' 2" -0.024
2026-02-22 3rd Annual HRH Winter Storm Classic 400m 1:23.71 23rd · 1st on team -0.024 PR SR
2026-02-22 3rd Annual HRH Winter Storm Classic 200m 34.4 33rd · 1st on team -0.024 PR SR
2026-01-17 BWSP Queens and Kings - Meet 2 shot 21' 2" -0.024
2026-01-17 BWSP Queens and Kings - Meet 2 400m 1:24.46 12th · 2nd on team -0.024 PR SR
2026-01-17 BWSP Queens and Kings - Meet 2 200m 35.29 18th · 1st on team -0.024 PR SR
2026-01-03 BWSP Queens and Kings - Meet 1 55m 8.93 29th · 1st on team -0.024 ★PR SR
2026-01-03 BWSP Queens and Kings - Meet 1 200m 36.45 28th · 1st on team -0.024 PR SR
2026-01-03 BWSP Queens and Kings - Meet 1 400m 1:27.52 18th · 1st on team -0.024 PR SR